Regional Weather Roundup
Issued by NWS

Home | Current Version | Previous Version | Text Only | Print | Product List | Glossary On
Versions: 1 2 3 4 5 6 7 8 9 10 11 12 13 14 15 16 17 18 19 20 21 22 23 24 25 26 27 28 29 30 31 32 33 34 35 36 37 38 39 40 41 42 43 44 45 46 47 48 49 50
000
ASUS43 KTOP 171508
RWRKS

WEATHER ROUNDUP FOR KANSAS
NATIONAL WEATHER SERVICE GOODLAND KS
900 AM CST TUE JAN 17 2017

NOTE:  "FAIR" INDICATES FEW OR NO CLOUDS BELOW 12,000 FEET WITH NO
SIGNIFICANT WEATHER AND/OR OBSTRUCTIONS TO VISIBILITY.

KSZ001>006-013>018-027>032-041>047-171600-
NORTHWEST KANSAS

CITY           SKY/WX    TMP DP  RH WIND       PRES   REMARKS
GOODLAND       CLOUDY    23  18  81 W8        30.10R
HAYS           CLOUDY    33  28  81 W7        30.13R
HILL CITY      CLEAR     31  25  78 NW8       30.13R
RUSSELL        CLOUDY    32  28  85 NW10      30.11R WCI  24
$$

KSZ061>065-074>080-084>089-171600-
SOUTHWEST KANSAS

CITY           SKY/WX    TMP DP  RH WIND       PRES   REMARKS
DODGE CITY     CLOUDY    34  30  85 NW8       30.13R
ELKHART          N/A     31  26  82 W6          N/A
GARDEN CITY    CLOUDY    35  30  82 NW7       30.12R
GREAT BEND     CLOUDY    34  30  85 W5        30.14R
LIBERAL        MOSUNNY   34  28  80 NW7       30.14R
PRATT          MOSUNNY   32  29  88 NW7       30.13R
$$

KSZ066>073-081>083-090>101-171600-
SOUTHEAST KANSAS

CITY           SKY/WX    TMP DP  RH WIND       PRES   REMARKS
CHANUTE        CLOUDY    37  34  89 NW6       30.12R
COFFEYVILLE    CLOUDY    38  35  89 NW7       30.15
HUTCHINSON     MOSUNNY   34  30  85 NW6       30.12R
MEDICINE LODGE   N/A     32  29  88 NW5       30.14S
NEWTON         SUNNY     36  32  85 NW10      30.11R WCI  28
PARSONS        CLOUDY    37  35  92 NW6       30.13R
WICHITA INTL   MOSUNNY   36  31  82 NW10      30.12R WCI  28
WICHITA JABRA  SUNNY     35  31  85 NW7       30.11R
WICHITA MCCONL SUNNY     36  30  80 NW7       30.11R
WINFIELD       CLOUDY    37  33  85 W3        30.15R
$$

KSZ007>012-019>026-033>040-048>060-102>105-171600-
NORTHEAST KANSAS

CITY           SKY/WX    TMP DP  RH WIND       PRES   REMARKS
CONCORDIA      CLOUDY    29  26  89 NW8       30.12R
EMPORIA        CLOUDY    34  33  96 NW8       30.10S FOG
LAWRENCE       CLOUDY    35  34  96 W9        30.11R FOG
MANHATTAN      CLOUDY    34  29  82 W5        30.13R
MARYSVILLE     CLOUDY    30  27  86 NW8       30.11R
OLATHE IND     FOG       34  34 100 W10       30.10R VSB 1   WCI  26
OLATHE EXE     CLOUDY    33  33 100 W7        30.09R FOG
SALINA         PTSUNNY   34  28  79 NW7       30.14R
TOPEKA BILLARD CLOUDY    36  32  85 W8        30.11R
TOPEKA FORBES  CLOUDY    36  33  89 W8        30.10R
$$



USA.gov is the U.S. government's official web portal to all federal, state and local government web resources and services.